2025-138D

Last updated on Wed Jul 02 2025 00:02:08 GMT+0000 (Coordinated Universal Time)

1 64624U 25138D 25182.57703906 .00002844 00000+0 15436-3 0 9995 2 64624 97.4356 187.0946 0014380 269.3891 90.5692 15.15262870 724
UTC large
Height (km)
Speed (km/s)
/
Latitude / Longitude
Inclination (degrees)
Orbital Period (minutes)
Azimuth
Elevation
Range (km)
Doppler Factor

Next 0 passes for location: London (51.5072 / 0.1276)

Sorry there are no passes over London.